彩虹 8星 (RADUGA 8)

导读 | 豆包AI

RADUGA 8是苏联解体后独立国家联合体(CIS)运营的“彩虹”(Raduga)系列通信卫星,1981年3月18日UTC时间08:00发射升空。作为苏联军用静止轨道通信卫星,它运行在地球同步轨道,轨道周期约1435分钟,主要承担军事通信传输任务,支撑独联体时期的战略通信需求,延续了RADUGA系列卫星可靠的卫星通信服务能力,是冷战末期苏联航天通信体系的重要组成部分。

基本信息
目录编号:
12351
目录名称:
RADUGA 8
国际标识:
1981-027A
轨道中心:
EARTH
卫星名称:
彩虹 8星
卫星全名:
彩虹 8星 (RADUGA 8)
卫星状态:
在轨 (已飞行16432 天)
发射日期:
1981-03-18 UTC
国别 :
俄罗斯(独联体) (CIS)
星等 :
--
轨道信息
数据来源 国际轨道数据 AOE轨道数据
星历时间 2026-03-13T14:10:51+0800
20小时前
查看轨道信息
2026-03-10T18:00:00+0800
3天前
查看轨道信息
半长轴 42128.855km 42129.219km
偏心率 0.0079802 0.0079852
轨道倾角 6.523° 6.530°
近地点辐角 272.251° 272.152°
升交点赤经 290.327° 290.352°
平近点角 283.638° 336.897°
近地点 35414.521km 35414.671km
远地点 36086.915km 36087.493km
周期 1434.264分钟 1434.283分钟
每日圈数 1.003999 1.003986
详细信息
平衡模式:
三轴稳定
覆盖范围:
全球
运营商:
俄罗斯国家航天集团
运营商所在国:
俄罗斯
制造商(研发单位):
普里克拉德诺伊·梅哈尼基设计局
制造商所在国:
俄罗斯联邦
使用方式:
暂无
卫星简介
彩虹卫星(Raduga, Gran)是苏联用于军事和通信目的的一系列地球静止通信卫星。彩虹卫星旨在支持军事通信、Orbita地面电视网络,并在整个东半球(极地地区除外)提供电话和电报通信。该卫星已退役。
2D轨道图
3D轨道图
轨道高度分析图
轨道倾角分析图
轨道综合分析图
查看轨道综合分析图